Location: ??????
(38.1303°N, 24.0039°E)
Time: 18:00:18
(UTC+00:00)

NOSS 3-4 (A) - Pass Details

Date: 20 June 2021
Orbit: 869 x 1343 km, 63.4° (Epoch: 26 July)

Event Time Altitude Azimuth Distance (km) Brightness Sun altitude
Exits shadow 02:20:12 - 206° (SSW) 2,887 5.4 -7.5°
Reaches altitude 10° 02:21:12 10° 206° (SSW) 2,505 5.1 -7.3°
Maximum altitude 02:26:56 79° 121° (ESE) 907 3.5 -6.4°
Drops below altitude 10° 02:33:00 10° 35° (NE) 2,648 7.2 -5.4°
Sets 02:35:39 0° 35° (NE) 3,651 8.1 -5.0°
